Regional Weather Roundup
Issued by NWS State College, PA

Home | Current Version | Previous Version | Graphics & Text | Print | Product List | Glossary Off
Versions: 1 2 3 4 5 6 7 8 9 10 11 12 13 14 15 16 17 18 19 20 21 22 23 24 25 26 27 28 29 30 31 32 33 34 35 36 37 38 39 40 41 42 43 44 45 46 47 48 49 50

000
ASUS41 KCTP 020203
RWRCTP

REGIONAL WEATHER ROUNDUP
NATIONAL WEATHER SERVICE STATE COLLEGE PA
1000 PM EDT WED OCT 01 2014

Note: "fair" indicates few or no clouds below 12,000 feet with no
significant weather and/or obstructions to visibility.

* = STATION THAT DOES NOT REPORT PRECIPITATION /E.G. RAIN...SNOW...ETC/
    THUNDER OR FOG.

PAZ002>004-007>009-013>016-020>023-029>032-020300-
WESTERN PENNSYLVANIA

CITY           SKY/WX    TMP DP  RH WIND       PRES   REMARKS
ERIE           PTCLDY    63  59  87 E8        30.05R FOG
MEADVILLE      CLEAR     58  56  93 CALM      30.06R FOG
FRANKLIN*      CLEAR     55  54  94 CALM      30.08R
NEW CASTLE     FOG       53  53 100 CALM      30.07R VSB 1/2
BEAVER COUNTY  NOT AVBL
BUTLER*        CLOUDY    55  54  94 CALM      30.07S
PITTSBURGH INT PTCLDY    57  55  93 CALM      30.05R
PITTSBURGH     CLEAR     60  54  80 S3        30.05R HAZE
INDIANA*       CLOUDY    59  55  88 CALM      30.11R
LATROBE        CLEAR     59  59 100 CALM      30.07R
WASHINGTON CO* CLOUDY    50  48  93 CALM      30.07S VSB 1/4
$$

PAZ004>006-010>012-017>019-024>028-033>037-041-042-045-046-049>053-020300-
CENTRAL PENNSYLVANIA

CITY           SKY/WX    TMP DP  RH WIND       PRES   REMARKS
BRADFORD       CLEAR     52  50  93 CALM      30.09R FOG
DUBOIS         CLEAR     56  53  90 E5        30.07R
CLEARFIELD     CLEAR     54  53  97 N7        30.09R
JOHNSTOWN      CLEAR     57  54  89 SW5       30.09R
ALTOONA        CLEAR     55  54  96 CALM      30.09R
STATE COLLEGE  PTCLDY    57  56  98 CALM      30.08R FOG
WILLIAMSPORT   CLOUDY    63  60  90 CALM      30.06R
SELINSGROVE    CLOUDY    62  59  90 CALM      30.07S
FT INDIANTOWN  DRIZZLE   62  62 100 VRB1      30.09S
CAPITAL CITY   CLEAR     63  58  83 E6        30.07R
HARRISBURG     PTCLDY    62  58  86 NE3       30.07R
YORK           CLEAR     53  52  96 CALM      30.07R FOG
$$

PAZ038>040-043-044-047-048-054-055-060>062-067>071-020300-
EASTERN PENNSYLVANIA

CITY           SKY/WX    TMP DP  RH WIND       PRES   REMARKS
SCRANTON       CLOUDY    62  54  74 E3        30.09S
MOUNT POCONO   MOCLDY    57  53  86 E6        30.11S
ALLENTOWN      CLOUDY    62  56  80 CALM      30.09R
QUAKERTOWN*    CLOUDY    63  57  82 CALM      30.09S
READING        CLOUDY    65  56  72 CALM      30.08R
LANCASTER      LGT RAIN  63  59  87 NE5       30.08R
COATESVILLE    MOCLDY    63  57  82 CALM      30.09R
POTTSTOWN      CLOUDY    61  57  87 CALM      30.10R
BLUE BELL      CLOUDY    64  59  82 CALM      30.07S
DOYLESTOWN     CLOUDY    63  58  83 CALM      30.07S
WILLOW GROVE   NOT AVBL
NORTH PHILA    CLOUDY    67  56  67 NE5       30.08S
PHILADELPHIA   MOCLDY    66  57  72 NE7G17    30.07R
$$


USA.gov is the U.S. government's official web portal to all federal, state and local government web resources and services.